Regional Weather Roundup
Issued by NWS

Home | Current Version | Previous Version | Graphics & Text | Print | Product List | Glossary On
Versions: 1 2 3 4 5 6 7 8 9 10 11 12 13 14 15 16 17 18 19 20 21 22 23 24 25 26 27 28 29 30 31 32 33 34 35 36 37 38 39 40 41 42 43 44 45 46 47 48 49 50
410
ASUS43 KBIS 242210
RWRND

NORTH DAKOTA REGIONAL WEATHER ROUNDUP
NATIONAL WEATHER SERVICE BISMARCK ND
500 PM CDT MON JUL 24 2017

NOTE: "FAIR" INDICATES FEW OR NO CLOUDS BELOW 12,000 FEET WITH NO
SIGNIFICANT WEATHER AND/OR OBSTRUCTIONS TO VISIBILITY.


NDZ001>003-009>011-017-242300-
NORTHWEST NORTH DAKOTA

CITY           SKY/WX    TMP DP  RH WIND       PRES   REMARKS
WILLISTON      MOSUNNY   92  56  29 N18       29.77R HX  90
MINOT          SUNNY     97  56  25 S15G25    29.72F HX  95
MINOT AFB      MOSUNNY   96  57  27 S14G23    29.70F HX  94
$$

NDZ018>021-031>035-040>046-242300-
SOUTHWEST NORTH DAKOTA

CITY           SKY/WX    TMP DP  RH WIND       PRES   REMARKS
BISMARCK       SUNNY     90  64  42 SE20G28   29.80F HX  91
DICKINSON      SUNNY     96  55  25 S10       29.76F HX  94
GARRISON         N/A     93  63  36 S17G24    29.75S HX  94
HETTINGER ARPT SUNNY     94  53  25 CALM      29.82S HX  91
$$

NDZ004>008-012>016-024-026-027-054-242300-
NORTHEAST NORTH DAKOTA

CITY           SKY/WX    TMP DP  RH WIND       PRES   REMARKS
GRAND FORKS    PTSUNNY   82  65  56 S16       29.87F
GRND FRKS AFB  MOSUNNY   80  64  57 S21       29.87F
DEVILS LAKE    SUNNY     81  65  58 S22G30    29.83F
$$

NDZ022-023-025-028>030-036>039-047>053-242300-
SOUTHEAST NORTH DAKOTA

CITY           SKY/WX    TMP DP  RH WIND       PRES   REMARKS
FARGO          CLOUDY    77  63  61 SE18G31   29.90F
JAMESTOWN      PTSUNNY   83  63  50 SE17      29.87F
$$





USA.gov is the U.S. government's official web portal to all federal, state and local government web resources and services.